Year,Month,Day,Hour,Minute,Value (Times are PST for temperature in C)
2018,08,10,00,00,20.70
2018,08,10,00,01,20.60
2018,08,10,00,02,20.60
2018,08,10,00,03,20.60
2018,08,10,00,04,20.60
2018,08,10,00,05,20.50
2018,08,10,00,06,20.50
2018,08,10,00,07,20.40
2018,08,10,00,08,20.40
2018,08,10,00,09,20.40
2018,08,10,00,10,20.30
2018,08,10,00,11,20.30
2018,08,10,00,12,20.30
2018,08,10,00,13,20.30
2018,08,10,00,14,20.20
2018,08,10,00,15,20.20
2018,08,10,00,16,20.20
2018,08,10,00,17,20.10
2018,08,10,00,18,20.10
2018,08,10,00,19,20.00
2018,08,10,00,20,20.00
2018,08,10,00,21,20.00
2018,08,10,00,22,19.90
2018,08,10,00,23,19.90
2018,08,10,00,24,19.90
2018,08,10,00,25,19.80
2018,08,10,00,26,19.80
2018,08,10,00,27,19.70
2018,08,10,00,28,19.70
2018,08,10,00,29,19.70
2018,08,10,00,30,19.70
2018,08,10,00,31,19.60
2018,08,10,00,32,19.60
2018,08,10,00,33,19.60
2018,08,10,00,34,19.60
2018,08,10,00,35,19.50
2018,08,10,00,36,19.50
2018,08,10,00,37,19.40
2018,08,10,00,38,19.40
2018,08,10,00,39,19.40
2018,08,10,00,40,19.30
2018,08,10,00,41,19.30
2018,08,10,00,42,19.30
2018,08,10,00,43,19.30
2018,08,10,00,44,19.20
2018,08,10,00,45,19.20
2018,08,10,00,46,19.20
2018,08,10,00,47,19.20
2018,08,10,00,48,19.10
2018,08,10,00,49,19.10
2018,08,10,00,50,19.10
2018,08,10,00,51,19.10
2018,08,10,00,52,19.10
2018,08,10,00,53,19.10
2018,08,10,00,54,19.10
2018,08,10,00,55,19.00
2018,08,10,00,56,19.00
2018,08,10,00,57,19.00
2018,08,10,00,58,19.00
2018,08,10,00,59,18.90
2018,08,10,01,00,18.90
2018,08,10,01,01,18.90
2018,08,10,01,02,18.90
2018,08,10,01,03,18.90
2018,08,10,01,04,18.90
2018,08,10,01,05,18.90
2018,08,10,01,06,18.90
2018,08,10,01,07,18.80
2018,08,10,01,08,18.80
2018,08,10,01,09,18.80
2018,08,10,01,10,18.80
2018,08,10,01,11,18.70
2018,08,10,01,12,18.70
2018,08,10,01,13,18.70
2018,08,10,01,14,18.70
2018,08,10,01,15,18.60
2018,08,10,01,16,18.60
2018,08,10,01,17,18.60
2018,08,10,01,18,18.60
2018,08,10,01,19,18.60
2018,08,10,01,20,18.60
2018,08,10,01,21,18.60
2018,08,10,01,22,18.60
2018,08,10,01,23,18.60
2018,08,10,01,24,18.50
2018,08,10,01,25,18.50
2018,08,10,01,26,18.50
2018,08,10,01,27,18.50
2018,08,10,01,28,18.50
2018,08,10,01,29,18.50
2018,08,10,01,30,18.50
2018,08,10,01,31,18.50
2018,08,10,01,32,18.50
2018,08,10,01,33,18.50
2018,08,10,01,34,18.40
2018,08,10,01,35,18.40
2018,08,10,01,36,18.40
2018,08,10,01,37,18.40
2018,08,10,01,38,18.40
2018,08,10,01,39,18.40
2018,08,10,01,40,18.30
2018,08,10,01,41,18.30
2018,08,10,01,42,18.30
2018,08,10,01,43,18.30
2018,08,10,01,44,18.30
2018,08,10,01,45,18.30
2018,08,10,01,46,18.30
2018,08,10,01,47,18.20
2018,08,10,01,48,18.20
2018,08,10,01,49,18.20
2018,08,10,01,50,18.20
2018,08,10,01,51,18.20
2018,08,10,01,52,18.20
2018,08,10,01,53,18.20
2018,08,10,01,54,18.20
2018,08,10,01,55,18.20
2018,08,10,01,56,18.10
2018,08,10,01,57,18.10
2018,08,10,01,58,18.10
2018,08,10,01,59,18.10
2018,08,10,02,00,18.00
2018,08,10,02,01,18.00
2018,08,10,02,02,18.00
2018,08,10,02,03,17.90
2018,08,10,02,04,17.90
2018,08,10,02,05,17.90
2018,08,10,02,06,17.90
2018,08,10,02,07,17.90
2018,08,10,02,08,17.90
2018,08,10,02,09,17.90
2018,08,10,02,10,17.90
2018,08,10,02,11,17.80
2018,08,10,02,12,17.90
2018,08,10,02,13,17.80
2018,08,10,02,14,17.80
2018,08,10,02,15,17.80
2018,08,10,02,16,17.80
2018,08,10,02,17,17.80
2018,08,10,02,18,17.80
2018,08,10,02,19,17.80
2018,08,10,02,20,17.80
2018,08,10,02,21,17.80
2018,08,10,02,22,17.80
2018,08,10,02,23,17.80
2018,08,10,02,24,17.80
2018,08,10,02,25,17.80
2018,08,10,02,26,17.80
2018,08,10,02,27,17.80
2018,08,10,02,28,17.70
2018,08,10,02,29,17.70
2018,08,10,02,30,17.70
2018,08,10,02,31,17.70
2018,08,10,02,32,17.70
2018,08,10,02,33,17.70
2018,08,10,02,34,17.70
2018,08,10,02,35,17.70
2018,08,10,02,36,17.60
2018,08,10,02,37,17.60
2018,08,10,02,38,17.60
2018,08,10,02,39,17.60
2018,08,10,02,40,17.60
2018,08,10,02,41,17.60
2018,08,10,02,42,17.60
2018,08,10,02,43,17.60
2018,08,10,02,44,17.60
2018,08,10,02,45,17.60
2018,08,10,02,46,17.60
2018,08,10,02,47,17.60
2018,08,10,02,48,17.60
2018,08,10,02,49,17.60
2018,08,10,02,50,17.60
2018,08,10,02,51,17.60
2018,08,10,02,52,17.60
2018,08,10,02,53,17.60
2018,08,10,02,54,17.60
2018,08,10,02,55,17.60
2018,08,10,02,56,17.60
2018,08,10,02,57,17.60
2018,08,10,02,58,17.60
2018,08,10,02,59,17.60
2018,08,10,03,00,17.60
2018,08,10,03,01,17.60
2018,08,10,03,02,17.60
2018,08,10,03,03,17.70
2018,08,10,03,04,17.70
2018,08,10,03,05,17.70
2018,08,10,03,06,17.70
2018,08,10,03,07,17.70
2018,08,10,03,08,17.70
2018,08,10,03,09,17.70
2018,08,10,03,10,17.70
2018,08,10,03,11,17.70
2018,08,10,03,12,17.70
2018,08,10,03,13,17.70
2018,08,10,03,14,17.60
2018,08,10,03,15,17.60
2018,08,10,03,16,17.60
2018,08,10,03,17,17.60
2018,08,10,03,18,17.60
2018,08,10,03,19,17.60
2018,08,10,03,20,17.60
2018,08,10,03,21,17.60
2018,08,10,03,22,17.50
2018,08,10,03,23,17.50
2018,08,10,03,24,17.50
2018,08,10,03,25,17.40
2018,08,10,03,26,17.40
2018,08,10,03,27,17.40
2018,08,10,03,28,17.40
2018,08,10,03,29,17.30
2018,08,10,03,30,17.30
2018,08,10,03,31,17.30
2018,08,10,03,32,17.20
2018,08,10,03,33,17.20
2018,08,10,03,34,17.20
2018,08,10,03,35,17.20
2018,08,10,03,36,17.20
2018,08,10,03,37,17.10
2018,08,10,03,38,17.10
2018,08,10,03,39,17.10
2018,08,10,03,40,17.10
2018,08,10,03,41,17.00
2018,08,10,03,42,17.00
2018,08,10,03,43,17.00
2018,08,10,03,44,16.90
2018,08,10,03,45,16.90
2018,08,10,03,46,16.90
2018,08,10,03,47,16.90
2018,08,10,03,48,16.90
2018,08,10,03,49,16.90
2018,08,10,03,50,16.80
2018,08,10,03,51,16.80
2018,08,10,03,52,16.80
2018,08,10,03,53,16.80
2018,08,10,03,54,16.80
2018,08,10,03,55,16.80
2018,08,10,03,56,16.80
2018,08,10,03,57,16.80
2018,08,10,03,58,16.80
2018,08,10,03,59,16.80
2018,08,10,04,00,16.80
2018,08,10,04,01,16.80
2018,08,10,04,02,16.70
2018,08,10,04,03,16.70
2018,08,10,04,04,16.70
2018,08,10,04,05,16.70
2018,08,10,04,06,16.70
2018,08,10,04,07,16.70
2018,08,10,04,08,16.60
2018,08,10,04,09,16.60
2018,08,10,04,10,16.60
2018,08,10,04,11,16.60
2018,08,10,04,12,16.50
2018,08,10,04,13,16.50
2018,08,10,04,14,16.50
2018,08,10,04,15,16.50
2018,08,10,04,16,16.50
2018,08,10,04,17,16.50
2018,08,10,04,18,16.50
2018,08,10,04,19,16.50
2018,08,10,04,20,16.50
2018,08,10,04,21,16.50
2018,08,10,04,22,16.50
2018,08,10,04,23,16.50
2018,08,10,04,24,16.50
2018,08,10,04,25,16.50
2018,08,10,04,26,16.40
2018,08,10,04,27,16.40
2018,08,10,04,28,16.40
2018,08,10,04,29,16.40
2018,08,10,04,30,16.40
2018,08,10,04,31,16.40
2018,08,10,04,32,16.30
2018,08,10,04,33,16.30
2018,08,10,04,34,16.30
2018,08,10,04,35,16.30
2018,08,10,04,36,16.30
2018,08,10,04,37,16.30
2018,08,10,04,38,16.30
2018,08,10,04,39,16.20
2018,08,10,04,40,16.20
2018,08,10,04,41,16.20
2018,08,10,04,42,16.20
2018,08,10,04,43,16.20
2018,08,10,04,44,16.20
2018,08,10,04,45,16.20
2018,08,10,04,46,16.20
2018,08,10,04,47,16.20
2018,08,10,04,48,16.20
2018,08,10,04,49,16.30
2018,08,10,04,50,16.30
2018,08,10,04,51,16.30
2018,08,10,04,52,16.30
2018,08,10,04,53,16.30
2018,08,10,04,54,16.40
2018,08,10,04,55,16.40
2018,08,10,04,56,16.40
2018,08,10,04,57,16.40
2018,08,10,04,58,16.40
2018,08,10,04,59,16.40
2018,08,10,05,00,16.30
2018,08,10,05,01,16.30
2018,08,10,05,02,16.30
2018,08,10,05,03,16.30
2018,08,10,05,04,16.30
2018,08,10,05,05,16.30
2018,08,10,05,06,16.30
2018,08,10,05,07,16.30
2018,08,10,05,08,16.30
2018,08,10,05,09,16.20
2018,08,10,05,10,16.20
2018,08,10,05,11,16.20
2018,08,10,05,12,16.20
2018,08,10,05,13,16.20
2018,08,10,05,14,16.30
2018,08,10,05,15,16.30
2018,08,10,05,16,16.30
2018,08,10,05,17,16.30
2018,08,10,05,18,16.30
2018,08,10,05,19,16.30
2018,08,10,05,20,16.30
2018,08,10,05,21,16.30
2018,08,10,05,22,16.20
2018,08,10,05,23,16.20
2018,08,10,05,24,16.20
2018,08,10,05,25,16.20
2018,08,10,05,26,16.20
2018,08,10,05,27,16.20
2018,08,10,05,28,16.20
2018,08,10,05,29,16.10
2018,08,10,05,30,16.10
2018,08,10,05,31,16.10
2018,08,10,05,32,16.10
2018,08,10,05,33,16.00
2018,08,10,05,34,16.00
2018,08,10,05,35,16.00
2018,08,10,05,36,16.00
2018,08,10,05,37,16.10
2018,08,10,05,38,16.10
2018,08,10,05,39,16.10
2018,08,10,05,40,16.10
2018,08,10,05,41,16.10
2018,08,10,05,42,16.10
2018,08,10,05,43,16.10
2018,08,10,05,44,16.10
2018,08,10,05,45,16.00
2018,08,10,05,46,16.00
2018,08,10,05,47,16.00
2018,08,10,05,48,16.00
2018,08,10,05,49,16.00
2018,08,10,05,50,15.90
2018,08,10,05,51,16.00
2018,08,10,05,52,16.00
2018,08,10,05,53,16.00
2018,08,10,05,54,16.00
2018,08,10,05,55,16.10
2018,08,10,05,56,16.10
2018,08,10,05,57,16.10
2018,08,10,05,58,16.10
2018,08,10,05,59,16.00
2018,08,10,06,00,16.00
2018,08,10,06,01,16.00
2018,08,10,06,02,16.00
2018,08,10,06,03,15.90
2018,08,10,06,04,15.90
2018,08,10,06,05,15.90
2018,08,10,06,06,15.90
2018,08,10,06,07,15.90
2018,08,10,06,08,15.90
2018,08,10,06,09,15.90
2018,08,10,06,10,15.90
2018,08,10,06,11,15.90
2018,08,10,06,12,15.90
2018,08,10,06,13,15.90
2018,08,10,06,14,15.80
2018,08,10,06,15,15.80
2018,08,10,06,16,15.80
2018,08,10,06,17,15.80
2018,08,10,06,18,15.80
2018,08,10,06,19,15.80
2018,08,10,06,20,15.80
2018,08,10,06,21,15.80
2018,08,10,06,22,15.80
2018,08,10,06,23,15.80
2018,08,10,06,24,15.80
2018,08,10,06,25,15.80
2018,08,10,06,26,15.80
2018,08,10,06,27,15.80
2018,08,10,06,28,15.80
2018,08,10,06,29,15.80
2018,08,10,06,30,15.90
2018,08,10,06,31,15.90
2018,08,10,06,32,15.90
2018,08,10,06,33,15.90
2018,08,10,06,34,15.90
2018,08,10,06,35,15.90
2018,08,10,06,36,15.90
2018,08,10,06,37,15.90
2018,08,10,06,38,15.90
2018,08,10,06,39,15.90
2018,08,10,06,40,15.90
2018,08,10,06,41,15.90
2018,08,10,06,42,15.90
2018,08,10,06,43,15.90
2018,08,10,06,44,15.80
2018,08,10,06,45,15.80
2018,08,10,06,46,15.80
2018,08,10,06,47,15.80
2018,08,10,06,48,15.80
2018,08,10,06,49,15.80
2018,08,10,06,50,15.70
2018,08,10,06,51,15.70
2018,08,10,06,52,15.70
2018,08,10,06,53,15.70
2018,08,10,06,54,15.70
2018,08,10,06,55,15.70
2018,08,10,06,56,15.70
2018,08,10,06,57,15.70
2018,08,10,06,58,15.70
2018,08,10,06,59,15.70
2018,08,10,07,00,15.70
2018,08,10,07,01,15.70
2018,08,10,07,02,15.60
2018,08,10,07,03,15.60
2018,08,10,07,04,15.60
2018,08,10,07,05,15.60
2018,08,10,07,06,15.60
2018,08,10,07,07,15.70
2018,08,10,07,08,15.70
2018,08,10,07,09,15.70
2018,08,10,07,10,15.80
2018,08,10,07,11,15.80
2018,08,10,07,12,15.80
2018,08,10,07,13,15.80
2018,08,10,07,14,15.80
2018,08,10,07,15,15.90
2018,08,10,07,16,15.90
2018,08,10,07,17,15.90
2018,08,10,07,18,16.00
2018,08,10,07,19,16.00
2018,08,10,07,20,16.10
2018,08,10,07,21,16.10
2018,08,10,07,22,16.20
2018,08,10,07,23,16.20
2018,08,10,07,24,16.30
2018,08,10,07,25,16.40
2018,08,10,07,26,16.40
2018,08,10,07,27,16.50
2018,08,10,07,28,16.50
2018,08,10,07,29,16.60
2018,08,10,07,30,16.60
2018,08,10,07,31,16.60
2018,08,10,07,32,16.70
2018,08,10,07,33,16.70
2018,08,10,07,34,16.80
2018,08,10,07,35,16.90
2018,08,10,07,36,16.90
2018,08,10,07,37,17.00
2018,08,10,07,38,17.00
2018,08,10,07,39,17.10
2018,08,10,07,40,17.10
2018,08,10,07,41,17.20
2018,08,10,07,42,17.20
2018,08,10,07,43,17.20
2018,08,10,07,44,17.20
2018,08,10,07,45,17.30
2018,08,10,07,46,17.30
2018,08,10,07,47,17.30
2018,08,10,07,48,17.30
2018,08,10,07,49,17.40
2018,08,10,07,50,17.40
2018,08,10,07,51,17.40
2018,08,10,07,52,17.50
2018,08,10,07,53,17.50
2018,08,10,07,54,17.60
2018,08,10,07,55,17.60
2018,08,10,07,56,17.60
2018,08,10,07,57,17.70
2018,08,10,07,58,17.70
2018,08,10,07,59,17.80
2018,08,10,08,00,17.80
2018,08,10,08,01,17.90
2018,08,10,08,02,18.00
2018,08,10,08,03,18.00
2018,08,10,08,04,18.10
2018,08,10,08,05,18.10
2018,08,10,08,06,18.20
2018,08,10,08,07,18.20
2018,08,10,08,08,18.30
2018,08,10,08,09,18.40
2018,08,10,08,10,18.40
2018,08,10,08,11,18.50
2018,08,10,08,12,18.60
2018,08,10,08,13,18.60
2018,08,10,08,14,18.70
2018,08,10,08,15,18.80
2018,08,10,08,16,18.80
2018,08,10,08,17,18.90
2018,08,10,08,18,18.90
2018,08,10,08,19,19.00
2018,08,10,08,20,19.00
2018,08,10,08,21,19.10
2018,08,10,08,22,19.10
2018,08,10,08,23,19.20
2018,08,10,08,24,19.20
2018,08,10,08,25,19.30
2018,08,10,08,26,19.30
2018,08,10,08,27,19.40
2018,08,10,08,28,19.40
2018,08,10,08,29,19.40
2018,08,10,08,30,19.50
2018,08,10,08,31,19.60
2018,08,10,08,32,19.60
2018,08,10,08,33,19.70
2018,08,10,08,34,19.70
2018,08,10,08,35,19.80
2018,08,10,08,36,19.80
2018,08,10,08,37,19.90
2018,08,10,08,38,19.90
2018,08,10,08,39,19.90
2018,08,10,08,40,20.00
2018,08,10,08,41,20.00
2018,08,10,08,42,20.00
2018,08,10,08,43,20.10
2018,08,10,08,44,20.10
2018,08,10,08,45,20.10
2018,08,10,08,46,20.10
2018,08,10,08,47,20.20
2018,08,10,08,48,20.20
2018,08,10,08,49,20.20
2018,08,10,08,50,20.30
2018,08,10,08,51,20.30
2018,08,10,08,52,20.30
2018,08,10,08,53,20.40
2018,08,10,08,54,20.40
2018,08,10,08,55,20.40
2018,08,10,08,56,20.40
2018,08,10,08,57,20.40
2018,08,10,08,58,20.50
2018,08,10,08,59,20.50
2018,08,10,09,00,20.50
2018,08,10,09,01,20.60
2018,08,10,09,02,20.60
2018,08,10,09,03,20.70
2018,08,10,09,04,20.70
2018,08,10,09,05,20.80
2018,08,10,09,06,20.80
2018,08,10,09,07,20.80
2018,08,10,09,08,20.80
2018,08,10,09,09,20.90
2018,08,10,09,10,20.90
2018,08,10,09,11,20.90
2018,08,10,09,12,21.00
2018,08,10,09,13,21.00
2018,08,10,09,14,21.00
2018,08,10,09,15,21.10
2018,08,10,09,16,21.20
2018,08,10,09,17,21.20
2018,08,10,09,18,21.20
2018,08,10,09,19,21.30
2018,08,10,09,20,21.30
2018,08,10,09,21,21.30
2018,08,10,09,22,21.40
2018,08,10,09,23,21.40
2018,08,10,09,24,21.50
2018,08,10,09,25,21.50
2018,08,10,09,26,21.60
2018,08,10,09,27,21.60
2018,08,10,09,28,21.70
2018,08,10,09,29,21.70
2018,08,10,09,30,21.80
2018,08,10,09,31,21.80
2018,08,10,09,32,21.90
2018,08,10,09,33,22.00
2018,08,10,09,34,22.10
2018,08,10,09,35,22.10
2018,08,10,09,36,22.20
2018,08,10,09,37,22.30
2018,08,10,09,38,22.30
2018,08,10,09,39,22.30
2018,08,10,09,40,22.40
2018,08,10,09,41,22.40
2018,08,10,09,42,22.40
2018,08,10,09,43,22.40
2018,08,10,09,44,22.50
2018,08,10,09,45,22.50
2018,08,10,09,46,22.50
2018,08,10,09,47,22.60
2018,08,10,09,48,22.60
2018,08,10,09,49,22.70
2018,08,10,09,50,22.70
2018,08,10,09,51,22.80
2018,08,10,09,52,22.80
2018,08,10,09,53,22.80
2018,08,10,09,54,22.80
2018,08,10,09,55,22.80
2018,08,10,09,56,22.80
2018,08,10,09,57,22.80
2018,08,10,09,58,22.80
2018,08,10,09,59,22.90
2018,08,10,10,00,22.90
2018,08,10,10,01,22.90
2018,08,10,10,02,22.90
2018,08,10,10,03,22.90
2018,08,10,10,04,22.90
2018,08,10,10,05,22.90
2018,08,10,10,06,22.90
2018,08,10,10,07,22.90
2018,08,10,10,08,22.90
2018,08,10,10,09,22.90
2018,08,10,10,10,22.90
2018,08,10,10,11,22.90
2018,08,10,10,12,22.90
2018,08,10,10,13,22.90
2018,08,10,10,14,22.80
2018,08,10,10,15,22.80
2018,08,10,10,16,22.80
2018,08,10,10,17,22.80
2018,08,10,10,18,22.80
2018,08,10,10,19,22.80
2018,08,10,10,20,22.80
2018,08,10,10,21,22.80
2018,08,10,10,22,22.80
2018,08,10,10,23,22.80
2018,08,10,10,24,22.80
2018,08,10,10,25,22.80
2018,08,10,10,26,22.80
2018,08,10,10,27,22.80
2018,08,10,10,28,22.80
2018,08,10,10,29,22.90
2018,08,10,10,30,22.90
2018,08,10,10,31,22.90
2018,08,10,10,32,22.90
2018,08,10,10,33,23.00
2018,08,10,10,34,23.00
2018,08,10,10,35,23.00
2018,08,10,10,36,23.00
2018,08,10,10,37,23.10
2018,08,10,10,38,23.10
2018,08,10,10,39,23.10
2018,08,10,10,40,23.20
2018,08,10,10,41,23.20
2018,08,10,10,42,23.20
2018,08,10,10,43,23.20
2018,08,10,10,44,23.20
2018,08,10,10,45,23.20
2018,08,10,10,46,23.10
2018,08,10,10,47,23.10
2018,08,10,10,48,23.10
2018,08,10,10,49,23.20
2018,08,10,10,50,23.30
2018,08,10,10,51,23.30
2018,08,10,10,52,23.30
2018,08,10,10,53,23.30
2018,08,10,10,54,23.30
2018,08,10,10,55,23.30
2018,08,10,10,56,23.30
2018,08,10,10,57,23.30
2018,08,10,10,58,23.40
2018,08,10,10,59,23.40
2018,08,10,11,00,23.50
2018,08,10,11,01,23.60
2018,08,10,11,02,23.60
2018,08,10,11,03,23.60
2018,08,10,11,04,23.60
2018,08,10,11,05,23.60
2018,08,10,11,06,23.70
2018,08,10,11,07,23.70
2018,08,10,11,08,23.70
2018,08,10,11,09,23.70
2018,08,10,11,10,23.80
2018,08,10,11,11,23.80
2018,08,10,11,12,23.80
2018,08,10,11,13,23.80
2018,08,10,11,14,23.80
2018,08,10,11,15,23.80
2018,08,10,11,16,23.80
2018,08,10,11,17,23.70
2018,08,10,11,18,23.60
2018,08,10,11,19,23.50
2018,08,10,11,20,23.30
2018,08,10,11,21,23.20
2018,08,10,11,22,23.00
2018,08,10,11,23,22.90
2018,08,10,11,24,22.90
2018,08,10,11,25,22.80
2018,08,10,11,26,22.80
2018,08,10,11,27,22.70
2018,08,10,11,28,22.60
2018,08,10,11,29,22.60
2018,08,10,11,30,22.50
2018,08,10,11,31,22.40
2018,08,10,11,32,22.40
2018,08,10,11,33,22.40
2018,08,10,11,34,22.30
2018,08,10,11,35,22.30
2018,08,10,11,36,22.20
2018,08,10,11,37,22.20
2018,08,10,11,38,22.20
2018,08,10,11,39,22.20
2018,08,10,11,40,22.30
2018,08,10,11,41,22.30
2018,08,10,11,42,22.30
2018,08,10,11,43,22.40
2018,08,10,11,44,22.40
2018,08,10,11,45,22.40
2018,08,10,11,46,22.50
2018,08,10,11,47,22.50
2018,08,10,11,48,22.60
2018,08,10,11,49,22.60
2018,08,10,11,50,22.60
2018,08,10,11,51,22.60
2018,08,10,11,52,22.60
2018,08,10,11,53,22.60
2018,08,10,11,54,22.60
2018,08,10,11,55,22.60
2018,08,10,11,56,22.70
2018,08,10,11,57,22.70
2018,08,10,11,58,22.80
2018,08,10,11,59,22.80
2018,08,10,12,00,22.90
2018,08,10,12,01,22.90
2018,08,10,12,02,23.00
2018,08,10,12,03,23.00
2018,08,10,12,04,23.00
2018,08,10,12,05,23.10
2018,08,10,12,06,23.10
2018,08,10,12,07,23.10
2018,08,10,12,08,23.10
2018,08,10,12,09,23.20
2018,08,10,12,10,23.20
2018,08,10,12,11,23.20
2018,08,10,12,12,23.20
2018,08,10,12,13,23.20
2018,08,10,12,14,23.30
2018,08,10,12,15,23.30
2018,08,10,12,16,23.40
2018,08,10,12,17,23.40
2018,08,10,12,18,23.40
2018,08,10,12,19,23.50
2018,08,10,12,20,23.50
2018,08,10,12,21,23.60
2018,08,10,12,22,23.70
2018,08,10,12,23,23.70
2018,08,10,12,24,23.70
2018,08,10,12,25,23.70
2018,08,10,12,26,23.80
2018,08,10,12,27,23.80
2018,08,10,12,28,23.90
2018,08,10,12,29,24.00
2018,08,10,12,30,24.00
2018,08,10,12,31,24.10
2018,08,10,12,32,24.10
2018,08,10,12,33,24.10
2018,08,10,12,34,24.10
2018,08,10,12,35,24.10
2018,08,10,12,36,24.10
2018,08,10,12,37,24.20
2018,08,10,12,38,24.20
2018,08,10,12,39,24.20
2018,08,10,12,40,24.10
2018,08,10,12,41,24.20
2018,08,10,12,42,24.20
2018,08,10,12,43,24.20
2018,08,10,12,44,24.20
2018,08,10,12,45,24.20
2018,08,10,12,46,24.30
2018,08,10,12,47,24.30
2018,08,10,12,48,24.30
2018,08,10,12,49,24.30
2018,08,10,12,50,24.40
2018,08,10,12,51,24.40
2018,08,10,12,52,24.30
2018,08,10,12,53,24.30
2018,08,10,12,54,24.20
2018,08,10,12,55,24.20
2018,08,10,12,56,24.20
2018,08,10,12,57,24.20
2018,08,10,12,58,24.20
2018,08,10,12,59,24.20
2018,08,10,13,00,24.30
2018,08,10,13,01,24.30
2018,08,10,13,02,24.30
2018,08,10,13,03,24.30
2018,08,10,13,04,24.40
2018,08,10,13,05,24.40
2018,08,10,13,06,24.40
2018,08,10,13,07,24.30
2018,08,10,13,08,24.30
2018,08,10,13,09,24.40
2018,08,10,13,10,24.40
2018,08,10,13,11,24.30
2018,08,10,13,12,24.30
2018,08,10,13,13,24.20
2018,08,10,13,14,24.20
2018,08,10,13,15,24.30
2018,08,10,13,16,24.30
2018,08,10,13,17,24.40
2018,08,10,13,18,24.40
2018,08,10,13,19,24.40
2018,08,10,13,20,24.50
2018,08,10,13,21,24.50
2018,08,10,13,22,24.50
2018,08,10,13,23,24.50
2018,08,10,13,24,24.50
2018,08,10,13,25,24.50
2018,08,10,13,26,24.60
2018,08,10,13,27,24.70
2018,08,10,13,28,24.80
2018,08,10,13,29,24.90
2018,08,10,13,30,25.00
2018,08,10,13,31,25.10
2018,08,10,13,32,25.20
2018,08,10,13,33,25.20
2018,08,10,13,34,25.30
2018,08,10,13,35,25.30
2018,08,10,13,36,25.40
2018,08,10,13,37,25.40
2018,08,10,13,38,25.40
2018,08,10,13,39,25.40
2018,08,10,13,40,25.30
2018,08,10,13,41,25.30
2018,08,10,13,42,25.40
2018,08,10,13,43,25.50
2018,08,10,13,44,25.60
2018,08,10,13,45,25.60
2018,08,10,13,46,25.60
2018,08,10,13,47,25.60
2018,08,10,13,48,25.60
2018,08,10,13,49,25.70
2018,08,10,13,50,25.80
2018,08,10,13,51,25.90
2018,08,10,13,52,25.90
2018,08,10,13,53,26.00
2018,08,10,13,54,26.10
2018,08,10,13,55,26.10
2018,08,10,13,56,26.20
2018,08,10,13,57,26.30
2018,08,10,13,58,26.40
2018,08,10,13,59,26.50
2018,08,10,14,00,26.60
2018,08,10,14,01,26.60
2018,08,10,14,02,26.60
2018,08,10,14,03,26.60
2018,08,10,14,04,26.70
2018,08,10,14,05,26.70
2018,08,10,14,06,26.80
2018,08,10,14,07,27.00
2018,08,10,14,08,27.10
2018,08,10,14,09,27.30
2018,08,10,14,10,27.40
2018,08,10,14,11,27.50
2018,08,10,14,12,27.50
2018,08,10,14,13,27.60
2018,08,10,14,14,27.60
2018,08,10,14,15,27.70
2018,08,10,14,16,27.70
2018,08,10,14,17,27.80
2018,08,10,14,18,27.80
2018,08,10,14,19,27.80
2018,08,10,14,20,27.80
2018,08,10,14,21,27.90
2018,08,10,14,22,28.00
2018,08,10,14,23,28.10
2018,08,10,14,24,28.20
2018,08,10,14,25,28.20
2018,08,10,14,26,28.30
2018,08,10,14,27,28.40
2018,08,10,14,28,28.40
2018,08,10,14,29,28.40
2018,08,10,14,30,28.40
2018,08,10,14,31,28.40
2018,08,10,14,32,28.30
2018,08,10,14,33,28.30
2018,08,10,14,34,28.20
2018,08,10,14,35,28.20
2018,08,10,14,36,28.20
2018,08,10,14,37,28.20
2018,08,10,14,38,28.20
2018,08,10,14,39,28.20
2018,08,10,14,40,28.30
2018,08,10,14,41,28.50
2018,08,10,14,42,28.60
2018,08,10,14,43,28.70
2018,08,10,14,44,28.70
2018,08,10,14,45,28.80
2018,08,10,14,46,28.80
2018,08,10,14,47,28.80
2018,08,10,14,48,28.90
2018,08,10,14,49,29.00
2018,08,10,14,50,29.10
2018,08,10,14,51,29.20
2018,08,10,14,52,29.10
2018,08,10,14,53,29.00
2018,08,10,14,54,29.00
2018,08,10,14,55,29.00
2018,08,10,14,56,29.00
2018,08,10,14,57,28.90
2018,08,10,14,58,28.90
2018,08,10,14,59,28.80
2018,08,10,15,00,28.70
2018,08,10,15,01,28.70
2018,08,10,15,02,28.70
2018,08,10,15,03,28.70
2018,08,10,15,04,28.70
2018,08,10,15,05,28.70
2018,08,10,15,06,28.70
2018,08,10,15,07,28.70
2018,08,10,15,08,28.70
2018,08,10,15,09,28.70
2018,08,10,15,10,28.70
2018,08,10,15,11,28.80
2018,08,10,15,12,28.80
2018,08,10,15,13,28.90
2018,08,10,15,14,28.90
2018,08,10,15,15,28.90
2018,08,10,15,16,28.90
2018,08,10,15,17,28.90
2018,08,10,15,18,28.80
2018,08,10,15,19,28.80
2018,08,10,15,20,28.70
2018,08,10,15,21,28.70
2018,08,10,15,22,28.70
2018,08,10,15,23,28.80
2018,08,10,15,24,28.80
2018,08,10,15,25,28.90
2018,08,10,15,26,28.90
2018,08,10,15,27,28.90
2018,08,10,15,28,28.80
2018,08,10,15,29,28.80
2018,08,10,15,30,28.80
2018,08,10,15,31,28.70
2018,08,10,15,32,28.70
2018,08,10,15,33,28.70
2018,08,10,15,34,28.80
2018,08,10,15,35,28.80
2018,08,10,15,36,28.80
2018,08,10,15,37,28.80
2018,08,10,15,38,28.80
2018,08,10,15,39,28.80
2018,08,10,15,40,28.80
2018,08,10,15,41,28.80
2018,08,10,15,42,28.80
2018,08,10,15,43,28.80
2018,08,10,15,44,28.80
2018,08,10,15,45,28.80
2018,08,10,15,46,28.80
2018,08,10,15,47,28.80
2018,08,10,15,48,28.70
2018,08,10,15,49,28.60
2018,08,10,15,50,28.60
2018,08,10,15,51,28.50
2018,08,10,15,52,28.50
2018,08,10,15,53,28.40
2018,08,10,15,54,28.40
2018,08,10,15,55,28.30
2018,08,10,15,56,28.30
2018,08,10,15,57,28.20
2018,08,10,15,58,28.10
2018,08,10,15,59,28.10
2018,08,10,16,00,28.10
2018,08,10,16,01,28.00
2018,08,10,16,02,28.10
2018,08,10,16,03,28.10
2018,08,10,16,04,28.10
2018,08,10,16,05,28.00
2018,08,10,16,06,28.10
2018,08,10,16,07,28.10
2018,08,10,16,08,28.00
2018,08,10,16,09,27.90
2018,08,10,16,10,27.90
2018,08,10,16,11,27.90
2018,08,10,16,12,27.90
2018,08,10,16,13,27.80
2018,08,10,16,14,27.80
2018,08,10,16,15,27.80
2018,08,10,16,16,27.60
2018,08,10,16,17,27.60
2018,08,10,16,18,27.60
2018,08,10,16,19,27.60
2018,08,10,16,20,27.50
2018,08,10,16,21,27.50
2018,08,10,16,22,27.50
2018,08,10,16,23,27.40
2018,08,10,16,24,27.40
2018,08,10,16,25,27.40
2018,08,10,16,26,27.30
2018,08,10,16,27,27.30
2018,08,10,16,28,27.30
2018,08,10,16,29,27.20
2018,08,10,16,30,27.20
2018,08,10,16,31,27.10
2018,08,10,16,32,27.10
2018,08,10,16,33,27.10
2018,08,10,16,34,27.10
2018,08,10,16,35,27.00
2018,08,10,16,36,27.00
2018,08,10,16,37,26.90
2018,08,10,16,38,26.70
2018,08,10,16,39,26.60
2018,08,10,16,40,26.60
2018,08,10,16,41,26.50
2018,08,10,16,42,26.50
2018,08,10,16,43,26.50
2018,08,10,16,44,26.50
2018,08,10,16,45,26.40
2018,08,10,16,46,26.30
2018,08,10,16,47,26.30
2018,08,10,16,48,26.20
2018,08,10,16,49,26.30
2018,08,10,16,50,26.30
2018,08,10,16,51,26.30
2018,08,10,16,52,26.30
2018,08,10,16,53,26.30
2018,08,10,16,54,26.30
2018,08,10,16,55,26.20
2018,08,10,16,56,26.20
2018,08,10,16,57,26.20
2018,08,10,16,58,26.20
2018,08,10,16,59,26.00
2018,08,10,17,00,25.90
2018,08,10,17,01,25.70
2018,08,10,17,02,25.70
2018,08,10,17,03,25.80
2018,08,10,17,04,25.90
2018,08,10,17,05,26.00
2018,08,10,17,06,26.00
2018,08,10,17,07,26.00
2018,08,10,17,08,26.00
2018,08,10,17,09,26.00
2018,08,10,17,10,26.00
2018,08,10,17,11,26.00
2018,08,10,17,12,26.00
2018,08,10,17,13,26.00
2018,08,10,17,14,26.00
2018,08,10,17,15,25.90
2018,08,10,17,16,25.80
2018,08,10,17,17,25.70
2018,08,10,17,18,25.70
2018,08,10,17,19,25.70